Hourly Weather Klebanivka

Today, 25 July, Sunday

Time Temperature Precipitation Wind Pressure Humidity
00:00 +19°C° 0 mm 1 mps 735 mmHg 66%
01:00 +18°C° 0 mm 1 mps 735 mmHg 67%
02:00 +18°C° 0 mm 1 mps 735 mmHg 67%
03:00 +18°C° 0 mm 1 mps 735 mmHg 68%
04:00 +17°C° 0 mm 2 mps 734 mmHg 69%
05:00 +16°C° 0 mm 2 mps 734 mmHg 70%
06:00 +18°C° 0 mm 2 mps 735 mmHg 67%
07:00 +20°C° 0 mm 2 mps 735 mmHg 63%
08:00 +23°C° 0 mm 2 mps 735 mmHg 62%
09:00 +24°C° 0 mm 3 mps 735 mmHg 58%
10:00 +25°C° 0 mm 3 mps 735 mmHg 54%
11:00 +26°C° 0 mm 4 mps 735 mmHg 50%
12:00 +27°C° 0 mm 4 mps 735 mmHg 50%
13:00 +27°C° 0 mm 4 mps 735 mmHg 51%
14:00 +27°C° 0 mm 4 mps 735 mmHg 52%
15:00 +26°C° 0 mm 4 mps 735 mmHg 55%
16:00 +26°C° 0 mm 4 mps 735 mmHg 59%
17:00 +25°C° 0 mm 4 mps 735 mmHg 63%
18:00 +23°C° 0 mm 4 mps 735 mmHg 66%
19:00 +22°C° 0 mm 3 mps 735 mmHg 69%
20:00 +21°C° 0 mm 3 mps 735 mmHg 72%
21:00 +20°C° 0 mm 3 mps 735 mmHg 73%
22:00 +19°C° 0 mm 3 mps 735 mmHg 73%
23:00 +18°C° 0 mm 3 mps 735 mmHg 73%

Tomorrow, 26 July, Monday

Time Temperature Precipitation Wind Pressure Humidity
00:00 +18°C° 0 mm 3 mps 735 mmHg 72%
01:00 +18°C° 0 mm 3 mps 735 mmHg 71%
02:00 +17°C° 0 mm 3 mps 735 mmHg 70%
03:00 +18°C° 0 mm 3 mps 735 mmHg 69%
04:00 +18°C° 0 mm 4 mps 735 mmHg 68%
05:00 +18°C° 0 mm 4 mps 734 mmHg 67%
06:00 +19°C° 0 mm 4 mps 734 mmHg 67%
07:00 +20°C° 0 mm 5 mps 734 mmHg 67%
08:00 +21°C° 0 mm 5 mps 735 mmHg 66%
09:00 +22°C° 0 mm 5 mps 735 mmHg 64%
10:00 +23°C° 0 mm 5 mps 735 mmHg 61%
11:00 +24°C° 0 mm 6 mps 735 mmHg 59%
12:00 +25°C° 0 mm 5 mps 735 mmHg 58%
13:00 +25°C° 0 mm 5 mps 735 mmHg 58%
14:00 +26°C° 0 mm 5 mps 735 mmHg 58%
15:00 +26°C° 0 mm 5 mps 735 mmHg 57%
16:00 +27°C° 0 mm 5 mps 734 mmHg 57%
17:00 +27°C° 0 mm 5 mps 734 mmHg 56%
18:00 +25°C° 0.4 mm 5 mps 734 mmHg 65%
19:00 +22°C° 0.4 mm 4 mps 734 mmHg 73%
20:00 +20°C° 0.4 mm 3 mps 734 mmHg 82%
21:00 +20°C° 0.3 mm 3 mps 734 mmHg 83%
22:00 +19°C° 0.3 mm 3 mps 734 mmHg 83%
23:00 +19°C° 0.3 mm 4 mps 734 mmHg 84%

Day after tomorrow, 27 July, Tuesday

Time Temperature Precipitation Wind Pressure Humidity
00:00 +18°C° 0.1 mm 4 mps 734 mmHg 83%
01:00 +18°C° 0.1 mm 4 mps 734 mmHg 82%
02:00 +18°C° 0.1 mm 4 mps 734 mmHg 81%
03:00 +18°C° 0.3 mm 4 mps 733 mmHg 83%
04:00 +18°C° 0.3 mm 4 mps 733 mmHg 85%
05:00 +17°C° 0.3 mm 4 mps 733 mmHg 87%
06:00 +19°C° 0.2 mm 4 mps 733 mmHg 85%
07:00 +20°C° 0.2 mm 4 mps 733 mmHg 83%
08:00 +22°C° 0.2 mm 4 mps 733 mmHg 80%
09:00 +25°C° 0.1 mm 4 mps 734 mmHg 73%
10:00 +27°C° 0.1 mm 4 mps 734 mmHg 66%
11:00 +29°C° 0.1 mm 4 mps 734 mmHg 59%
12:00 +28°C° 0 mm 4 mps 734 mmHg 60%
13:00 +28°C° 0 mm 4 mps 734 mmHg 62%
14:00 +28°C° 0 mm 4 mps 734 mmHg 64%
15:00 +28°C° 0.2 mm 5 mps 734 mmHg 67%
16:00 +27°C° 0.2 mm 5 mps 734 mmHg 70%
17:00 +27°C° 0.2 mm 6 mps 734 mmHg 73%
18:00 +26°C° 0.3 mm 5 mps 733 mmHg 76%
19:00 +25°C° 0.3 mm 5 mps 733 mmHg 79%
20:00 +23°C° 0.3 mm 4 mps 733 mmHg 82%
21:00 +22°C° 0.2 mm 3 mps 733 mmHg 84%
22:00 +21°C° 0.2 mm 3 mps 733 mmHg 86%
23:00 +21°C° 0.2 mm 2 mps 733 mmHg 88%

28 July, Wednesday

Time Temperature Precipitation Wind Pressure Humidity
00:00 +20°C° 0.1 mm 2 mps 733 mmHg 89%
01:00 +20°C° 0.1 mm 2 mps 733 mmHg 90%
02:00 +21°C° 0.1 mm 1 mps 733 mmHg 91%
03:00 +20°C° 0 mm 2 mps 733 mmHg 92%
04:00 +20°C° 0 mm 2 mps 733 mmHg 92%
05:00 +19°C° 0 mm 2 mps 733 mmHg 93%
06:00 +21°C° 0 mm 2 mps 733 mmHg 88%
07:00 +23°C° 0 mm 2 mps 733 mmHg 82%
08:00 +25°C° 0 mm 2 mps 733 mmHg 77%
09:00 +26°C° 0 mm 2 mps 734 mmHg 71%
10:00 +27°C° 0 mm 2 mps 734 mmHg 65%
11:00 +29°C° 0 mm 2 mps 734 mmHg 59%
12:00 +29°C° 0 mm 2 mps 734 mmHg 56%
13:00 +30°C° 0 mm 2 mps 734 mmHg 53%
14:00 +30°C° 0 mm 2 mps 733 mmHg 51%
15:00 +30°C° 0 mm 2 mps 733 mmHg 51%
16:00 +30°C° 0 mm 1 mps 733 mmHg 51%
17:00 +30°C° 0 mm 1 mps 733 mmHg 51%
18:00 +29°C° 0.1 mm 1 mps 733 mmHg 56%
19:00 +27°C° 0.1 mm 1 mps 732 mmHg 61%
20:00 +26°C° 0.1 mm 1 mps 732 mmHg 66%
21:00 +25°C° 0.6 mm 1 mps 732 mmHg 72%
22:00 +23°C° 0.6 mm 1 mps 732 mmHg 79%
23:00 +22°C° 0.6 mm 1 mps 732 mmHg 86%

29 July, Thursday

Time Temperature Precipitation Wind Pressure Humidity
00:00 +21°C° 1 mm 2 mps 732 mmHg 87%
01:00 +20°C° 1 mm 2 mps 732 mmHg 89%
02:00 +20°C° 1 mm 2 mps 731 mmHg 90%
03:00 +20°C° 0.1 mm 2 mps 731 mmHg 90%
04:00 +19°C° 0.1 mm 2 mps 731 mmHg 89%
05:00 +19°C° 0.1 mm 2 mps 731 mmHg 89%
06:00 +21°C° 0 mm 2 mps 731 mmHg 84%
07:00 +23°C° 0 mm 1 mps 731 mmHg 80%
08:00 +25°C° 0 mm 1 mps 731 mmHg 75%
09:00 +26°C° 0 mm 2 mps 732 mmHg 71%
10:00 +27°C° 0 mm 2 mps 732 mmHg 67%
11:00 +28°C° 0 mm 2 mps 732 mmHg 63%
12:00 +28°C° 0.1 mm 3 mps 732 mmHg 65%
13:00 +28°C° 0.1 mm 4 mps 732 mmHg 66%
14:00 +28°C° 0.1 mm 5 mps 732 mmHg 68%
15:00 +27°C° 0.1 mm 5 mps 732 mmHg 70%
16:00 +27°C° 0.1 mm 5 mps 732 mmHg 72%
17:00 +26°C° 0.1 mm 6 mps 731 mmHg 74%
18:00 +25°C° 0 mm 5 mps 732 mmHg 78%
19:00 +23°C° 0 mm 4 mps 732 mmHg 82%
20:00 +22°C° 0 mm 4 mps 732 mmHg 85%
21:00 +21°C° 0 mm 4 mps 732 mmHg 88%
22:00 +20°C° 0 mm 3 mps 732 mmHg 92%
23:00 +19°C° 0 mm 3 mps 732 mmHg 95%

30 July, Friday

Time Temperature Precipitation Wind Pressure Humidity
00:00 +19°C° 0 mm 3 mps 732 mmHg 95%
01:00 +19°C° 0 mm 3 mps 732 mmHg 95%
02:00 +18°C° 0 mm 3 mps 732 mmHg 95%
03:00 +18°C° 0 mm 3 mps 732 mmHg 95%
04:00 +18°C° 0 mm 3 mps 732 mmHg 96%
05:00 +18°C° 0 mm 2 mps 732 mmHg 96%
06:00 +19°C° 0 mm 3 mps 732 mmHg 89%
07:00 +21°C° 0 mm 3 mps 732 mmHg 83%
08:00 +22°C° 0 mm 3 mps 733 mmHg 77%
09:00 +24°C° 0 mm 2 mps 732 mmHg 72%
10:00 +26°C° 0 mm 2 mps 732 mmHg 66%
11:00 +27°C° 0 mm 2 mps 732 mmHg 61%
12:00 +28°C° 0 mm 2 mps 732 mmHg 57%
13:00 +28°C° 0 mm 2 mps 732 mmHg 54%
14:00 +29°C° 0 mm 2 mps 732 mmHg 51%
15:00 +29°C° 0 mm 1 mps 731 mmHg 50%
16:00 +29°C° 0 mm 1 mps 731 mmHg 50%
17:00 +29°C° 0 mm 1 mps 731 mmHg 50%
18:00 +27°C° 0 mm 1 mps 731 mmHg 55%
19:00 +26°C° 0 mm 1 mps 731 mmHg 60%
20:00 +24°C° 0 mm 1 mps 730 mmHg 66%
21:00 +23°C° 0 mm 1 mps 730 mmHg 68%
22:00 +23°C° 0 mm 2 mps 730 mmHg 70%
23:00 +21°C° 0 mm 2 mps 730 mmHg 72%
Show more